Temperature
16 16 17 17 20 21 22 22 22 22 22 22 21 23 25 26 26 24 20 19 20 19 17 17 16 16 16 16 16 16 16 16 16 16 16 16 16 16 16 16 16 16 16 16 16 16 16 16 16
15 16 16 18 20 20 21 22 21 22 22 20 21 22 23 23 20 18 19 19 19 18 17 16 16 16 16 16 16 16 16 16 16 16 16 16 16 16 16 16 16 17 16 16 16 16 16 16 16
15 16 17 19 20 21 21 21 21 21 20 20 21 21 22 21 18 17 18 18 18 18 16 16 16 16 16 16 16 16 16 16 16 16 16 16 16 16 16 17 17 17 17 17 16 16 16 16 16
14 15 17 19 19 21 21 20 20 21 20 20 21 21 19 17 16 17 18 18 17 17 16 16 16 16 16 16 16 16 16 16 16 16 16 16 16 16 17 17 17 17 17 17 17 16 16 16 16
14 17 18 18 19 20 20 19 19 21 21 20 21 22 19 16 17 17 17 17 16 16 16 16 16 16 16 16 16 17 17 17 17 16 16 16 16 16 17 17 17 17 17 17 17 17 16 16 16
14 17 18 18 19 19 19 18 19 20 21 20 20 21 17 16 16 16 17 16 16 16 16 15 16 16 16 16 17 17 17 17 17 16 16 16 16 16 17 17 17 17 17 17 17 17 16 16 16
15 17 18 19 19 19 19 18 19 20 20 19 19 20 17 16 16 16 16 16 16 15 15 15 15 15 16 16 17 17 17 17 17 16 16 16 16 16 16 16 16 17 17 17 17 17 17 16 16
14 17 17 18 19 18 18 17 17 19 19 16 17 19 17 15 15 15 15 15 15 15 15 15 15 15 15 16 16 17 17 17 17 17 16 16 16 16 16 16 16 16 16 16 16 17 16 16 16
13 15 16 18 18 19 18 18 17 16 17 16 15 15 15 15 15 15 15 15 15 15 15 15 15 15 15 15 16 16 17 17 17 17 17 17 16 16 16 16 16 16 16 16 16 16 16 16 16
13 14 17 18 19 19 17 18 17 17 18 17 16 15 15 15 15 15 15 15 15 15 15 15 15 15 15 15 15 16 16 17 16 16 17 16 16 16 16 17 16 16 16 16 16 16 16 15 15
13 15 17 17 17 17 17 17 16 18 18 17 16 15 15 15 15 15 15 15 15 15 15 15 15 15 15 15 15 15 16 16 16 16 16 16 16 16 16 16 16 16 16 16 16 16 15 15 15
14 15 16 16 16 16 17 16 17 17 17 15 15 15 15 15 15 15 15 15 15 15 15 15 15 15 15 15 15 15 15 16 16 16 16 16 16 16 16 16 16 16 15 15 15 15 14 15 15
14 14 15 15 15 15 16 16 17 17 15 15 15 15 15 15 15 15 15 15 15 15 15 15 15 15 15 15 15 15 15 15 15 16 16 16 16 15 15 15 16 15 15 15 15 14 14 14 14
14 14 14 14 14 14 15 16 16 16 15 15 15 16 16 15 15 15 15 15 15 15 15 15 15 15 15 15 15 15 15 15 15 15 16 16 15 15 15 15 15 15 15 14 14 14 14 13 13
13 13 13 14 14 14 15 15 17 16 15 16 16 16 16 16 16 16 15 15 15 15 15 15 15 15 15 15 14 14 14 14 15 15 15 15 15 15 15 15 14 14 14 14 14 13 13 13 13
13 13 12 14 14 14 14 15 17 16 16 16 17 17 16 16 16 16 16 16 16 16 16 15 15 15 15 15 14 14 14 14 14 14 14 14 14 14 14 14 14 14 14 14 14 13 13 13 13
12 12 13 13 14 14 14 15 17 16 16 16 17 17 17 16 16 16 16 16 16 16 16 16 15 15 15 15 15 15 14 14 14 14 14 14 14 14 14 14 14 14 14 14 13 13 13 13 13
12 13 13 13 13 14 14 16 16 15 15 16 17 17 17 16 16 16 16 16 16 16 16 16 16 15 15 15 15 15 15 15 15 15 15 14 14 14 14 14 14 14 14 14 14 13 13 13 13
13 13 13 13 13 14 14 15 16 15 15 16 17 17 17 17 16 16 16 16 16 16 16 16 16 16 15 15 15 15 15 15 15 15 15 15 14 14 14 14 14 14 14 14 14 13 13 13 13
12 12 13 12 12 14 14 15 16 16 15 16 16 17 17 17 16 16 16 16 16 17 16 16 16 16 16 16 15 15 15 15 15 15 15 15 15 15 14 14 14 14 14 14 14 13 13 13 13
11 12 13 12 12 13 13 14 15 16 15 15 15 15 16 16 16 16 16 16 16 16 16 16 16 16 16 16 16 15 15 15 15 15 15 15 15 14 14 14 14 14 14 14 14 13 13 12 12
11 13 13 12 13 13 13 14 16 16 15 16 15 15 16 16 15 15 15 16 16 16 16 16 16 16 16 16 16 15 15 15 15 15 15 15 14 14 14 14 14 14 13 13 13 13 13 12 11
11 12 12 13 13 13 13 14 16 15 15 16 16 16 15 15 15 15 15 16 16 16 16 16 16 16 16 16 15 15 15 15 15 14 14 14 14 14 14 13 13 13 13 13 13 13 12 12 11
10 11 12 12 13 12 13 13 15 15 16 16 17 16 15 15 14 14 15 15 15 15 15 15 15 15 15 15 15 15 14 14 14 14 14 13 13 13 13 13 13 12 12 12 12 12 11 11 10
11 11 10 10 11 12 12 13 14 16 15 15 16 15 15 14 14 14 14 15 15 15 15 15 14 14 14 14 14 14 14 13 13 13 13 12 12 12 12 12 11 11 11 11 11 11 10 10 10
11 12 11 11 11 12 11 12 15 15 14 12 12 12 12 12 13 13 13 14 14 14 14 14 14 13 13 13 13 13 13 12 12 12 12 11 11 11 11 10 10 10 10 10 10 10 9 9 9
10 11 11 12 11 12 12 12 14 14 14 13 13 12 12 11 11 11 12 12 12 13 13 13 12 12 12 12 12 12 12 11 11 11 11 10 10 10 9 9 9 9 9 9 9 9 9 9 8
11 11 11 11 10 12 12 13 14 15 15 14 14 13 12 10 10 10 10 10 11 11 11 11 11 11 11 11 11 11 11 10 10 10 9 9 9 8 8 8 8 8 8 8 8 8 8 8 7
10 10 11 11 12 12 12 14 14 14 14 13 13 12 11 10 9 9 9 9 10 10 10 10 10 10 10 10 10 10 9 9 9 8 8 8 8 7 7 7 7 7 7 7 7 7 7 7 7
10 11 11 11 10 11 12 14 14 13 13 12 12 11 10 10 9 8 8 9 9 10 10 10 10 10 9 9 9 9 8 8 8 7 7 7 7 6 6 6 6 6 6 6 6 6 6 6 6
Wind_Speed
6 5 3 3 5 6 12 7 4 5 4 1 1 3 4 3 3 3 5 14 16 18 20 21 19 18 17 16 15 14 13 12 11 11 11 12 13 14 14 14 15 15 16 17 17 17 16 15 14
5 3 3 4 8 12 13 8 7 4 1 0 2 3 4 2 3 5 8 14 17 19 19 20 20 18 18 17 15 14 12 11 10 10 11 12 13 14 14 14 15 15 16 16 15 15 14 13 13
4 3 4 6 10 15 11 8 5 1 1 3 3 2 1 2 3 4 8 15 18 18 18 19 20 19 18 17 15 13 12 11 10 10 11 13 13 14 14 14 15 14 14 14 14 13 13 12 12
4 5 5 10 15 12 6 6 2 2 3 3 3 4 3 4 2 4 12 16 18 17 17 19 19 19 18 17 15 13 12 11 10 10 11 13 13 14 14 14 14 13 13 12 12 12 11 11 11
5 6 10 14 17 11 6 3 1 2 4 3 3 4 4 4 3 8 14 16 17 16 16 19 19 19 18 17 15 13 12 11 11 11 11 12 13 14 13 13 12 12 11 11 11 10 10 10 10
8 8 13 19 18 10 7 4 2 2 3 3 3 4 4 4 5 11 14 14 15 15 15 18 19 19 18 17 15 13 11 10 10 11 11 12 13 13 12 11 10 10 10 9 9 9 8 8 8
13 14 19 21 17 12 8 5 3 3 4 3 1 3 4 5 6 10 12 13 14 14 14 16 17 18 18 17 15 13 11 10 10 11 11 12 13 12 10 9 8 8 8 8 7 7 6 6 6
11 11 20 20 18 14 9 5 2 2 4 4 2 2 4 4 6 9 10 11 12 12 13 14 15 16 15 14 14 12 11 10 10 11 12 13 13 11 9 8 7 6 6 6 5 5 5 5 4
9 13 20 22 19 14 10 7 4 3 6 6 5 4 1 6 9 9 10 10 11 12 11 12 13 13 13 12 13 12 11 10 10 11 12 11 8 8 7 6 6 5 4 4 3 3 4 4 3
13 18 25 19 15 12 10 7 6 6 8 6 7 7 5 9 9 10 10 12 13 14 12 10 12 12 12 10 11 9 9 10 9 9 10 7 6 4 4 6 4 3 3 3 3 2 4 4 3
14 22 21 15 11 11 10 6 5 7 6 5 6 7 6 7 8 8 9 10 12 13 11 10 10 12 11 9 9 7 7 8 8 8 8 7 6 5 5 5 5 5 5 5 4 5 4 4 3
16 19 17 14 11 9 9 7 5 4 5 6 6 6 6 6 6 7 8 9 10 11 12 11 10 10 11 10 9 8 7 7 7 8 8 7 6 5 5 5 5 5 6 5 5 5 5 5 5
18 16 15 13 10 9 7 8 7 6 6 6 6 5 5 4 4 6 7 8 9 10 11 11 10 10 10 9 8 8 7 7 7 7 8 8 6 6 6 6 6 6 6 6 6 6 6 6 6
15 14 14 13 12 8 10 9 9 9 7 5 3 3 3 2 3 6 8 9 10 10 11 10 11 10 10 9 8 8 8 7 7 7 8 9 7 6 6 6 6 7 7 7 7 7 7 7 7
12 13 12 13 13 10 9 13 15 11 8 8 7 4 1 0 2 4 7 9 11 11 10 10 10 10 10 10 9 8 8 8 7 7 8 9 9 8 7 6 6 7 8 8 8 8 8 7 7
14 14 14 11 14 11 12 19 18 11 11 12 11 8 5 3 2 3 5 7 9 10 10 10 9 11 11 10 9 8 8 8 8 8 8 9 10 10 8 7 7 8 8 8 7 7 7 7 8
13 17 19 12 13 11 15 17 14 11 12 14 15 13 9 7 5 3 4 6 8 9 10 10 11 11 11 10 9 9 8 8 8 7 8 9 10 11 10 8 9 9 8 8 7 7 7 8 8
20 19 20 16 13 15 18 17 10 8 11 15 16 15 13 11 8 4 3 4 6 8 9 9 10 10 9 8 7 6 7 7 7 7 8 9 9 10 10 9 10 10 7 8 8 9 8 8 8
15 17 17 13 11 14 17 17 13 10 11 15 16 17 17 14 9 5 3 4 5 7 8 9 9 9 8 6 6 6 6 6 6 6 7 8 8 9 9 8 9 8 8 9 10 9 9 8 7
13 16 14 10 9 11 13 16 14 13 15 15 16 17 18 16 12 7 5 5 6 7 7 8 8 8 8 7 5 4 4 4 4 4 5 5 6 7 8 8 7 7 7 10 10 9 7 6 6
13 16 15 12 9 7 7 11 16 15 15 16 16 16 17 16 15 11 8 7 6 7 7 6 7 7 7 7 5 4 3 3 4 4 3 3 4 5 6 8 8 7 7 8 9 9 10 8 7
10 11 12 14 12 7 10 8 13 16 17 18 18 17 17 15 13 10 9 8 7 6 5 6 6 6 6 6 6 7 6 6 5 3 3 2 2 3 4 5 6 6 6 8 8 8 8 9 9
7 9 10 11 9 6 9 8 7 8 16 19 18 18 16 15 13 11 10 8 7 7 6 6 6 6 5 5 5 6 5 4 3 2 3 2 1 1 2 3 4 5 5 6 7 8 8 8 9
10 10 9 6 6 8 11 10 7 7 11 14 16 16 15 14 12 11 9 8 8 7 7 7 7 6 5 5 4 4 4 4 4 3 3 2 2 1 1 2 3 4 4 5 6 7 8 8 9
10 13 7 7 8 7 6 8 8 5 6 9 10 11 12 12 12 11 11 11 10 10 9 8 8 7 6 5 4 3 3 3 3 2 2 2 2 1 2 3 3 3 4 5 5 6 6 6 7
11 9 5 7 8 5 5 8 6 4 5 6 7 8 8 9 10 11 11 12 12 12 10 9 8 7 6 5 4 3 3 2 1 1 1 1 1 2 3 3 3 4 4 4 4 4 4 3 4
9 5 1 2 3 4 5 4 7 5 5 4 5 5 6 7 8 9 10 11 12 12 11 10 9 8 6 5 4 4 3 2 1 1 0 1 1 2 2 3 3 3 3 3 2 2 2 1 1
2 6 4 4 5 4 4 5 4 3 1 1 3 4 4 5 6 8 10 11 11 11 10 9 8 7 6 5 4 3 2 2 1 0 0 1 1 1 2 2 2 2 2 2 1 1 1 2 2
6 5 4 3 2 3 3 3 2 2 1 3 5 5 4 3 5 8 9 11 11 10 9 9 8 7 6 5 4 3 2 2 1 1 0 0 1 1 1 1 1 2 2 2 2 2 2 3 3
5 8 8 5 4 3 3 2 3 4 3 4 4 4 3 3 5 8 10 11 11 10 9 8 8 7 6 5 4 3 3 2 1 1 1 0 1 1 1 1 1 2 2 3 3 3 4 4 5
Wind_Direction
304 308 278 228 209 217 219 197 182 167 180 188 258 234 221 187 180 107 116 153 147 152 153 152 150 148 144 138 131 126 122 119 119 119 118 114 110 103 98 95 93 94 95 95 93 90 87 85 84
293 284 223 213 218 213 209 197 189 172 142 229 201 211 201 140 45 92 143 153 152 152 154 156 147 147 143 138 133 128 125 122 123 123 122 118 113 107 102 98 96 96 96 95 92 88 85 83 83
255 249 212 204 219 219 205 187 183 192 252 202 173 179 180 79 82 126 149 155 153 152 155 148 146 146 142 139 135 131 127 124 127 128 127 121 116 111 105 101 99 99 99 97 93 88 84 83 82
208 194 205 218 215 215 197 154 159 174 144 171 183 148 111 45 30 124 148 158 154 152 153 147 147 144 141 139 137 134 131 129 130 131 130 124 118 112 107 105 103 103 102 101 96 88 83 83 83
208 200 202 214 215 200 190 154 171 168 148 147 182 153 112 37 47 135 150 157 154 152 152 150 146 143 142 141 139 138 134 132 133 136 134 128 120 114 110 108 108 107 106 104 99 91 84 83 85
192 201 207 209 204 194 189 185 189 161 130 122 154 147 82 58 111 140 148 156 154 152 152 150 147 145 144 143 143 141 138 135 137 141 135 130 123 117 115 114 113 112 110 108 104 97 90 88 91
201 200 212 211 200 194 188 177 192 162 129 89 75 140 99 90 114 138 147 154 155 155 155 154 156 152 147 146 146 144 142 137 134 137 134 129 125 123 122 121 119 116 112 109 108 105 100 96 97
214 208 214 211 202 195 177 161 134 146 101 64 32 121 117 111 125 131 140 152 158 161 161 159 160 158 157 154 148 146 144 137 129 131 130 130 130 128 129 135 123 120 117 113 111 110 107 104 104
200 210 210 206 204 192 175 164 128 96 104 83 61 39 52 134 138 137 145 156 165 168 167 165 162 160 161 156 152 153 149 143 141 138 136 146 156 153 154 132 125 127 127 125 125 122 119 127 133
196 209 212 207 206 190 173 164 142 140 118 97 70 56 101 139 151 155 162 168 173 175 172 169 166 164 162 155 162 165 162 164 174 165 165 176 172 166 161 141 154 154 152 158 155 148 170 217 212
201 213 210 205 196 184 169 158 153 155 123 91 72 71 108 141 155 165 172 178 180 180 175 174 172 172 169 165 169 170 172 172 178 178 178 181 182 181 192 191 187 198 203 211 190 215 227 244 257
203 214 208 194 185 187 180 172 167 162 126 108 90 92 107 141 166 179 183 186 188 188 185 182 179 180 180 176 178 181 183 183 185 188 192 194 200 208 211 219 217 220 221 229 237 246 243 249 250
204 203 200 195 189 196 193 197 205 199 146 124 106 100 97 134 181 196 200 199 198 200 196 191 188 187 186 186 186 191 196 196 194 194 201 207 212 218 220 228 227 231 235 235 241 248 252 257 260
197 192 192 191 192 198 209 218 220 217 184 178 154 121 101 102 198 209 211 210 208 210 206 199 196 197 194 195 197 201 205 205 207 205 209 213 221 226 230 234 234 237 236 241 247 252 259 262 263
181 181 184 195 196 199 208 226 226 224 211 225 225 218 183 60 228 226 225 221 215 213 212 206 202 202 203 205 206 210 211 210 214 216 217 218 224 230 233 241 241 242 241 244 250 257 260 263 264
181 191 195 195 195 193 202 226 221 217 229 242 240 237 235 240 248 239 232 227 218 211 210 207 201 205 208 211 210 214 217 216 220 222 224 225 229 232 236 241 246 248 248 247 250 256 257 257 258
183 197 199 187 192 187 205 230 223 217 232 245 243 240 240 245 248 235 230 226 215 208 207 207 205 206 208 211 213 219 220 221 225 225 228 229 232 234 235 243 249 251 248 248 248 251 253 260 262
186 193 195 191 187 195 210 225 217 221 231 242 243 240 238 243 245 234 225 221 212 205 204 206 206 209 206 205 211 216 223 226 228 228 230 233 235 236 238 244 250 252 249 250 249 250 251 258 269
189 188 188 188 180 199 216 227 230 233 235 240 240 239 237 239 238 223 208 204 199 197 196 200 203 204 200 198 204 211 220 221 224 229 234 237 241 241 240 245 250 247 248 253 255 254 256 253 252
175 179 177 169 176 199 218 231 233 232 233 237 240 237 232 233 229 218 199 195 197 193 191 193 198 198 198 201 204 213 214 219 223 222 229 238 245 246 245 246 250 250 251 255 255 250 250 253 235
182 181 173 161 157 186 209 234 232 231 233 237 241 242 237 231 230 221 207 198 195 193 188 186 187 190 193 191 186 184 190 201 207 214 222 241 251 252 250 253 255 255 250 254 256 251 247 254 247
173 176 164 157 163 182 201 232 223 222 226 232 234 235 236 231 229 222 210 199 191 184 173 175 174 174 178 183 192 201 211 220 220 218 219 232 248 261 267 265 265 264 260 260 263 259 253 254 254
154 159 161 171 181 184 202 234 237 211 228 231 232 234 236 234 230 222 213 200 183 170 164 161 160 155 160 172 181 195 207 213 203 208 219 225 221 270 306 289 279 273 271 269 269 265 258 252 255
135 135 129 156 192 223 212 222 250 220 232 234 232 233 235 233 230 225 208 189 177 167 160 159 155 143 139 144 159 181 192 197 203 216 225 228 225 238 341 323 299 290 285 279 275 269 263 257 257
165 154 148 174 202 221 181 219 250 252 249 250 249 242 239 237 229 218 203 191 180 172 167 163 155 142 136 134 135 142 161 182 206 221 232 242 247 262 326 328 315 305 298 290 283 273 268 264 260
182 187 186 184 194 183 179 227 246 264 279 276 272 267 260 250 234 222 209 195 185 175 169 165 156 145 140 134 125 120 127 147 157 193 241 256 275 301 320 320 315 311 306 299 287 275 273 275 270
172 189 29 97 130 187 199 236 271 257 253 259 265 265 260 252 234 219 203 192 182 174 169 163 155 148 144 137 131 127 123 125 137 158 244 273 298 311 317 318 318 325 326 318 302 289 303 303 329
201 160 161 167 174 202 200 223 219 172 171 11 340 312 289 257 226 205 192 183 175 168 161 159 158 153 147 145 141 136 130 122 135 198 247 292 318 321 317 327 336 344 350 348 357 28 32 72 55
155 171 182 177 226 216 200 179 170 180 8 341 339 326 300 257 211 191 182 175 168 161 159 159 159 155 154 155 151 151 142 134 142 154 126 321 332 341 340 349 3 14 20 28 61 72 74 85 75
216 200 191 195 198 218 235 210 142 222 273 291 310 319 295 236 201 186 177 172 170 167 166 166 167 166 164 160 159 155 151 155 160 145 106 72 59 47 40 48 59 55 50 56 76 84 81 84 81
Height
1534 1536 1537 1539 1539 1534 1529 1528 1528 1530 1530 1532 1532 1532 1529 1528 1530 1537 1538 1540 1542 1546 1549 1551 1555 1558 1561 1563 1564 1565 1565 1566 1566 1566 1567 1567 1567 1567 1566 1566 1566 1565 1566 1566 1567 1567 1567 1568 1568
1534 1535 1538 1538 1534 1532 1529 1527 1529 1529 1530 1532 1532 1532 1531 1531 1534 1535 1535 1539 1543 1547 1550 1553 1556 1559 1562 1563 1565 1566 1566 1567 1567 1568 1568 1569 1569 1569 1569 1569 1568 1568 1568 1569 1569 1569 1570 1570 1570
1532 1534 1537 1533 1529 1526 1525 1527 1528 1530 1531 1531 1532 1532 1532 1534 1535 1535 1536 1539 1544 1547 1551 1554 1556 1560 1562 1564 1566 1567 1567 1568 1568 1569 1570 1571 1571 1571 1571 1571 1571 1571 1571 1572 1572 1572 1572 1573 1573
1532 1535 1535 1530 1527 1524 1524 1527 1529 1529 1530 1531 1531 1532 1534 1534 1535 1535 1536 1540 1545 1548 1552 1554 1557 1560 1563 1565 1566 1567 1568 1569 1570 1571 1572 1572 1573 1573 1574 1574 1574 1574 1574 1574 1574 1575 1575 1575 1575
1530 1531 1528 1526 1523 1524 1527 1529 1529 1528 1528 1530 1531 1530 1533 1534 1533 1534 1537 1541 1545 1549 1553 1555 1558 1561 1563 1565 1567 1568 1569 1570 1571 1572 1573 1574 1575 1575 1575 1576 1576 1576 1576 1577 1577 1577 1577 1577 1577
1528 1526 1523 1521 1521 1524 1527 1529 1529 1528 1529 1530 1531 1531 1534 1534 1534 1536 1539 1543 1547 1550 1553 1556 1559 1562 1564 1566 1567 1569 1570 1571 1572 1573 1574 1575 1576 1576 1577 1577 1578 1578 1578 1578 1579 1579 1579 1579 1579
1523 1521 1517 1515 1519 1524 1526 1529 1529 1528 1528 1531 1532 1532 1535 1536 1536 1538 1541 1544 1548 1551 1554 1557 1559 1562 1564 1566 1568 1569 1570 1572 1573 1574 1575 1576 1577 1578 1578 1579 1579 1579 1580 1580 1580 1580 1580 1580 1580
1519 1518 1516 1514 1517 1522 1526 1528 1529 1529 1530 1533 1533 1533 1535 1537 1538 1540 1542 1545 1548 1551 1555 1557 1560 1562 1564 1566 1568 1569 1571 1572 1573 1574 1576 1577 1578 1578 1579 1579 1580 1580 1580 1580 1580 1581 1581 1581 1581
1518 1519 1514 1512 1515 1519 1525 1527 1530 1530 1531 1533 1534 1535 1535 1536 1538 1541 1543 1546 1549 1552 1555 1558 1560 1562 1565 1566 1567 1569 1570 1572 1573 1575 1576 1577 1578 1579 1579 1579 1580 1580 1581 1581 1581 1581 1581 1581 1581
1515 1513 1509 1510 1514 1518 1524 1526 1528 1530 1531 1533 1534 1534 1534 1536 1539 1541 1544 1546 1549 1552 1555 1557 1560 1562 1564 1566 1567 1569 1570 1572 1573 1575 1576 1577 1578 1579 1579 1579 1580 1580 1580 1581 1581 1581 1580 1580 1580
1510 1507 1508 1513 1516 1520 1523 1526 1528 1528 1531 1534 1535 1535 1536 1538 1540 1542 1545 1547 1549 1552 1554 1557 1559 1561 1564 1565 1567 1569 1570 1571 1572 1574 1575 1576 1577 1578 1578 1579 1579 1580 1580 1580 1580 1580 1580 1580 1579
1507 1507 1509 1513 1518 1521 1523 1526 1528 1529 1532 1533 1534 1535 1537 1539 1541 1543 1545 1547 1549 1551 1553 1556 1558 1560 1563 1565 1566 1568 1569 1570 1571 1572 1573 1575 1576 1576 1577 1578 1578 1578 1579 1579 1579 1579 1579 1578 1578
1505 1507 1510 1514 1518 1521 1523 1525 1527 1529 1532 1533 1534 1535 1537 1539 1541 1543 1545 1547 1548 1550 1552 1554 1557 1559 1561 1563 1565 1567 1568 1569 1570 1571 1572 1573 1574 1575 1576 1576 1576 1577 1577 1578 1578 1578 1578 1577 1577
1503 1507 1511 1514 1518 1521 1523 1525 1527 1528 1531 1532 1534 1535 1537 1539 1540 1542 1543 1545 1547 1549 1551 1553 1555 1557 1559 1562 1564 1565 1567 1568 1569 1569 1570 1571 1572 1573 1574 1574 1575 1575 1576 1576 1576 1576 1576 1575 1575
1505 1508 1511 1513 1516 1520 1523 1523 1523 1526 1529 1531 1532 1534 1536 1537 1538 1540 1541 1543 1545 1547 1549 1551 1553 1555 1557 1560 1562 1564 1565 1566 1567 1568 1569 1569 1570 1571 1572 1572 1573 1573 1574 1574 1574 1574 1573 1573 1572
1503 1506 1510 1511 1514 1518 1523 1519 1518 1523 1527 1528 1529 1532 1534 1535 1537 1538 1539 1541 1543 1545 1547 1549 1551 1553 1556 1558 1560 1562 1563 1564 1565 1566 1567 1568 1568 1569 1570 1570 1571 1571 1571 1571 1571 1571 1571 1570 1570
1501 1502 1505 1510 1512 1515 1518 1515 1515 1520 1523 1524 1526 1528 1531 1533 1534 1536 1537 1538 1540 1543 1545 1547 1549 1552 1554 1556 1558 1559 1561 1562 1563 1564 1564 1565 1566 1567 1567 1568 1569 1569 1569 1568 1568 1568 1567 1567 1566
1493 1494 1500 1505 1510 1512 1513 1511 1514 1518 1520 1521 1522 1524 1527 1529 1532 1533 1534 1536 1538 1540 1542 1545 1547 1549 1552 1554 1555 1557 1558 1559 1560 1561 1562 1563 1563 1564 1564 1565 1565 1565 1565 1565 1565 1564 1563 1563 1562
1489 1493 1499 1503 1509 1510 1510 1510 1512 1515 1516 1517 1517 1519 1522 1525 1528 1529 1531 1533 1535 1537 1539 1542 1544 1547 1549 1550 1552 1554 1555 1556 1557 1558 1559 1559 1560 1560 1561 1561 1561 1561 1561 1561 1560 1560 1559 1558 1557
1495 1496 1500 1506 1509 1509 1509 1509 1509 1511 1512 1513 1513 1515 1517 1521 1524 1526 1527 1529 1532 1534 1536 1539 1541 1543 1546 1548 1549 1551 1552 1553 1554 1554 1555 1555 1556 1556 1556 1556 1556 1556 1556 1555 1555 1554 1553 1552 1552
1496 1495 1497 1502 1509 1510 1510 1509 1506 1506 1508 1509 1510 1511 1513 1516 1519 1521 1524 1526 1528 1531 1533 1536 1538 1540 1542 1544 1546 1548 1549 1549 1550 1550 1550 1551 1551 1551 1551 1551 1551 1550 1550 1549 1549 1548 1548 1547 1546
1497 1495 1498 1501 1504 1507 1509 1504 1497 1499 1502 1503 1505 1507 1509 1512 1514 1517 1519 1522 1524 1527 1529 1532 1534 1536 1539 1541 1542 1544 1545 1545 1545 1546 1546 1546 1546 1546 1546 1545 1545 1545 1544 1543 1543 1542 1541 1541 1540
1496 1498 1499 1500 1501 1505 1507 1506 1493 1496 1497 1497 1499 1502 1505 1508 1511 1513 1515 1518 1520 1523 1525 1528 1530 1532 1534 1536 1538 1539 1540 1541 1541 1541 1541 1541 1540 1540 1540 1539 1539 1538 1538 1537 1536 1536 1535 1534 1534
1499 1501 1503 1503 1504 1510 1503 1505 1496 1492 1491 1492 1495 1498 1501 1504 1506 1509 1511 1513 1516 1519 1521 1524 1526 1528 1530 1532 1533 1535 1536 1536 1536 1536 1536 1535 1535 1534 1534 1533 1533 1532 1532 1531 1530 1529 1529 1528 1528
1499 1499 1507 1511 1511 1505 1503 1503 1494 1488 1490 1491 1493 1495 1497 1500 1502 1503 1505 1508 1511 1514 1517 1520 1522 1524 1526 1528 1529 1530 1531 1531 1531 1531 1531 1530 1530 1529 1529 1528 1527 1526 1526 1525 1524 1523 1523 1522 1522
1496 1494 1497 1500 1502 1500 1507 1501 1490 1488 1491 1492 1493 1494 1494 1495 1497 1498 1500 1503 1506 1509 1513 1516 1518 1520 1522 1524 1525 1526 1526 1527 1526 1526 1526 1525 1525 1524 1523 1523 1522 1521 1520 1520 1519 1518 1517 1517 1516
1496 1496 1498 1496 1499 1499 1497 1496 1491 1487 1489 1490 1491 1491 1491 1492 1492 1493 1496 1498 1501 1504 1508 1512 1515 1517 1519 1520 1521 1522 1522 1522 1522 1522 1521 1520 1520 1519 1518 1518 1517 1516 1515 1515 1514 1513 1513 1512 1511
1495 1495 1498 1500 1502 1497 1494 1493 1486 1484 1485 1486 1488 1488 1488 1488 1488 1489 1491 1494 1497 1501 1505 1509 1512 1514 1516 1517 1517 1518 1518 1518 1517 1517 1516 1516 1515 1514 1514 1513 1512 1511 1511 1510 1509 1509 1508 1508 1507
1497 1498 1495 1495 1494 1494 1493 1488 1483 1485 1486 1487 1487 1487 1486 1486 1486 1486 1488 1491 1495 1499 1503 1506 1509 1511 1512 1513 1514 1514 1514 1513 1513 1513 1512 1511 1511 1510 1509 1509 1508 1507 1507 1506 1505 1505 1504 1504 1503
1494 1491 1493 1496 1500 1496 1491 1488 1484 1486 1487 1488 1487 1486 1485 1484 1484 1485 1487 1490 1493 1497 1501 1504 1506 1508 1509 1510 1510 1510 1510 1509 1509 1508 1508 1507 1507 1506 1505 1505 1504 1503 1503 1502 1502 1501 1501 1500 1500